Location: *
(42.5628°N, 2.3633°E)
Time: 02:07:07
(UTC+00:00)

Cosmos 1726 - Pass Details

Date: 30 March 2020
Orbit: 482 x 500 km, 82.5° (Epoch: 31 May)

Event Time Altitude Azimuth Distance (km) Brightness Sun altitude
Exits shadow 19:42:53 25° 65° (ENE) 1,054 3.4 -16.5°
Drops below altitude 10° 19:45:12 10° 31° (NNE) 1,715 4.7 -16.9°
Sets 19:47:31 0° 20° (NNE) 2,603 5.8 -17.3°
